Time,TemperatureF,DewpointF,PressureIn,WindDirection,WindDirectionDegrees,WindSpeedMPH,WindSpeedGustMPH,Humidity,HourlyPrecipIn,Conditions,Clouds,dailyrainin,SoftwareType,DateUTC
2013-03-14 00:02:00,27.0,24.0,-100.00,SW,225,8.0,11.0,86,0.00,,,-99.99,,2013-03-14 05:02:00,
2013-03-14 00:12:00,27.0,23.0,-100.00,SW,235,7.0,11.0,85,0.00,,,-99.99,,2013-03-14 05:12:00,
2013-03-14 00:22:00,27.0,23.0,-100.00,WSW,245,10.0,12.0,86,0.00,,,-99.99,,2013-03-14 05:22:00,
2013-03-14 00:33:00,28.0,24.0,-100.00,SW,235,9.0,13.0,85,0.00,,,-99.99,,2013-03-14 05:33:00,
2013-03-14 00:42:00,28.0,24.0,-100.00,SW,235,9.0,13.0,85,0.00,,,-99.99,,2013-03-14 05:42:00,
2013-03-14 00:52:00,29.0,24.0,-100.00,SW,225,7.0,14.0,81,0.00,,,-99.99,,2013-03-14 05:52:00,
2013-03-14 01:02:00,29.0,24.0,-100.00,SW,225,7.0,14.0,81,0.00,,,-99.99,,2013-03-14 06:02:00,
2013-03-14 01:12:00,29.0,24.0,-100.00,SW,235,6.0,9.0,80,0.00,,,-99.99,,2013-03-14 06:12:00,
2013-03-14 01:22:00,29.0,24.0,-100.00,WSW,250,11.0,12.0,82,0.00,,,-99.99,,2013-03-14 06:22:00,
2013-03-14 01:32:00,29.0,25.0,-100.00,WSW,245,11.0,13.0,84,0.00,,,-99.99,,2013-03-14 06:32:00,
2013-03-14 01:42:00,29.0,25.0,-100.00,WSW,245,11.0,13.0,84,0.00,,,-99.99,,2013-03-14 06:42:00,
2013-03-14 01:52:00,29.0,25.0,-100.00,WSW,245,13.0,15.0,84,0.00,,,-99.99,,2013-03-14 06:52:00,
2013-03-14 02:02:00,30.0,25.0,-100.00,WSW,245,12.0,15.0,83,0.00,,,-99.99,,2013-03-14 07:02:00,
2013-03-14 02:12:00,31.0,25.0,-100.00,WSW,250,14.0,17.0,80,0.00,,,-99.99,,2013-03-14 07:12:00,
2013-03-14 02:22:00,31.0,25.0,-100.00,WSW,250,16.0,18.0,79,0.00,,,-99.99,,2013-03-14 07:22:00,
2013-03-14 02:32:00,31.0,25.0,-100.00,WSW,250,16.0,20.0,80,0.00,,,-99.99,,2013-03-14 07:32:00,
2013-03-14 02:42:00,31.0,25.0,-100.00,WSW,250,16.0,20.0,80,0.00,,,-99.99,,2013-03-14 07:42:00,
2013-03-14 02:52:00,31.0,25.0,-100.00,WSW,245,18.0,20.0,81,0.00,,,-99.99,,2013-03-14 07:52:00,
2013-03-14 03:02:00,31.0,25.0,-100.00,WSW,245,18.0,20.0,81,0.00,,,-99.99,,2013-03-14 08:02:00,
2013-03-14 03:12:00,30.0,25.0,-100.00,WSW,250,17.0,21.0,81,0.00,,,-99.99,,2013-03-14 08:12:00,
2013-03-14 03:21:00,30.0,25.0,-100.00,WSW,245,19.0,22.0,82,0.00,,,-99.99,,2013-03-14 08:21:00,
2013-03-14 03:32:00,30.0,26.0,-100.00,WSW,245,18.0,20.0,82,0.00,,,-99.99,,2013-03-14 08:32:00,
2013-03-14 03:41:00,31.0,26.0,-100.00,WSW,245,16.0,21.0,82,0.00,,,-99.99,,2013-03-14 08:41:00,
2013-03-14 03:51:00,31.0,26.0,-100.00,WSW,250,14.0,19.0,80,0.00,,,-99.99,,2013-03-14 08:51:00,
2013-03-14 04:01:00,31.0,26.0,-100.00,WSW,250,14.0,19.0,80,0.00,,,-99.99,,2013-03-14 09:01:00,
2013-03-14 04:12:00,31.0,26.0,-100.00,WSW,245,11.0,17.0,80,0.00,,,-99.99,,2013-03-14 09:12:00,
2013-03-14 04:22:00,31.0,26.0,-100.00,WSW,240,11.0,14.0,80,0.00,,,-99.99,,2013-03-14 09:22:00,
2013-03-14 04:32:00,31.0,26.0,-100.00,WSW,245,11.0,13.0,80,0.00,,,-99.99,,2013-03-14 09:32:00,
2013-03-14 04:42:00,31.0,26.0,-100.00,WSW,245,12.0,14.0,81,0.00,,,-99.99,,2013-03-14 09:42:00,
2013-03-14 04:52:00,31.0,26.0,-100.00,WSW,250,16.0,18.0,82,0.00,,,-99.99,,2013-03-14 09:52:00,
2013-03-14 05:02:00,31.0,26.0,-100.00,WSW,245,17.0,19.0,82,0.00,,,-99.99,,2013-03-14 10:02:00,
2013-03-14 05:12:00,31.0,26.0,-100.00,WSW,250,17.0,19.0,83,0.00,,,-99.99,,2013-03-14 10:12:00,
2013-03-14 05:22:00,31.0,27.0,-100.00,WSW,250,16.0,19.0,83,0.00,,,-99.99,,2013-03-14 10:22:00,
2013-03-14 05:32:00,31.0,27.0,-100.00,WSW,250,16.0,19.0,83,0.00,,,-99.99,,2013-03-14 10:32:00,
2013-03-14 05:42:00,31.0,27.0,-100.00,WSW,250,16.0,19.0,83,0.00,,,-99.99,,2013-03-14 10:42:00,
2013-03-14 05:52:00,32.0,27.0,-100.00,WSW,250,17.0,21.0,83,0.00,,,-99.99,,2013-03-14 10:52:00,
2013-03-14 06:02:00,32.0,27.0,-100.00,WSW,250,17.0,21.0,83,0.00,,,-99.99,,2013-03-14 11:02:00,
2013-03-14 06:12:00,32.0,27.0,-100.00,WSW,245,15.0,19.0,83,0.00,,,-99.99,,2013-03-14 11:12:00,
2013-03-14 06:22:00,31.0,27.0,-100.00,WSW,245,13.0,18.0,84,0.00,,,-99.99,,2013-03-14 11:22:00,
2013-03-14 06:33:00,31.0,27.0,-100.00,SW,235,11.0,21.0,83,0.00,,,-99.99,,2013-03-14 11:33:00,
2013-03-14 06:42:00,31.0,27.0,-100.00,SW,235,11.0,21.0,83,0.00,,,-99.99,,2013-03-14 11:42:00,
2013-03-14 06:52:00,31.0,27.0,-100.00,WSW,245,12.0,16.0,84,0.00,,,-99.99,,2013-03-14 11:52:00,
2013-03-14 07:02:00,31.0,27.0,-100.00,WSW,245,18.0,21.0,85,0.00,,,-99.99,,2013-03-14 12:02:00,
2013-03-14 07:12:00,31.0,27.0,-100.00,WSW,255,9.0,19.0,85,0.00,,,-99.99,,2013-03-14 12:12:00,
2013-03-14 07:22:00,30.0,26.0,-100.00,WSW,250,10.0,12.0,85,0.00,,,-99.99,,2013-03-14 12:22:00,
2013-03-14 07:33:00,31.0,27.0,-100.00,WSW,250,9.0,14.0,84,0.00,,,-99.99,,2013-03-14 12:33:00,
2013-03-14 07:42:00,31.0,27.0,-100.00,WSW,255,8.0,12.0,84,0.00,,,-99.99,,2013-03-14 12:42:00,
2013-03-14 07:52:00,29.0,26.0,-100.00,WSW,250,6.0,9.0,85,0.00,,,-99.99,,2013-03-14 12:52:00,
2013-03-14 08:02:00,29.0,26.0,-100.00,WSW,255,6.0,9.0,86,0.00,,,-99.99,,2013-03-14 13:02:00,
2013-03-14 08:12:00,28.0,25.0,-100.00,WSW,250,7.0,10.0,87,0.00,,,-99.99,,2013-03-14 13:12:00,
2013-03-14 08:22:00,29.0,26.0,-100.00,WSW,250,7.0,9.0,87,0.00,,,-99.99,,2013-03-14 13:22:00,
2013-03-14 08:32:00,29.0,25.0,-100.00,WSW,255,7.0,10.0,87,0.00,,,-99.99,,2013-03-14 13:32:00,
2013-03-14 08:42:00,29.0,25.0,-100.00,WSW,255,7.0,10.0,87,0.00,,,-99.99,,2013-03-14 13:42:00,
2013-03-14 08:52:00,31.0,27.0,-100.00,WSW,250,7.0,10.0,84,0.00,,,-99.99,,2013-03-14 13:52:00,
2013-03-14 09:02:00,31.0,27.0,-100.00,WSW,250,7.0,10.0,84,0.00,,,-99.99,,2013-03-14 14:02:00,
2013-03-14 09:12:00,32.0,28.0,-100.00,WSW,255,8.0,10.0,83,0.00,,,-99.99,,2013-03-14 14:12:00,
2013-03-14 09:22:00,33.0,28.0,-100.00,WSW,245,8.0,11.0,83,0.00,,,-99.99,,2013-03-14 14:22:00,
2013-03-14 09:32:00,33.0,28.0,-100.00,WSW,245,7.0,10.0,82,0.00,,,-99.99,,2013-03-14 14:32:00,
2013-03-14 09:42:00,35.0,29.0,-100.00,WSW,255,6.0,7.0,80,0.00,,,-99.99,,2013-03-14 14:42:00,
2013-03-14 09:52:00,35.0,30.0,-100.00,WSW,250,6.0,7.0,79,0.00,,,-99.99,,2013-03-14 14:52:00,
2013-03-14 10:02:00,37.0,30.0,-100.00,WSW,245,5.0,7.0,77,0.00,,,-99.99,,2013-03-14 15:02:00,
2013-03-14 10:12:00,37.0,31.0,-100.00,WSW,255,4.0,6.0,76,0.00,,,-99.99,,2013-03-14 15:12:00,
2013-03-14 10:22:00,38.0,31.0,-100.00,WSW,245,4.0,6.0,74,0.00,,,-99.99,,2013-03-14 15:22:00,
2013-03-14 10:32:00,39.0,31.0,-100.00,WSW,240,4.0,6.0,73,0.00,,,-99.99,,2013-03-14 15:32:00,
2013-03-14 10:43:00,39.0,31.0,-100.00,WSW,240,4.0,6.0,73,0.00,,,-99.99,,2013-03-14 15:43:00,
2013-03-14 10:52:00,40.0,32.0,-100.00,WNW,290,2.0,9.0,71,0.00,,,-99.99,,2013-03-14 15:52:00,
2013-03-14 11:03:00,41.0,32.0,-100.00,WNW,290,4.0,5.0,70,0.00,,,-99.99,,2013-03-14 16:03:00,
2013-03-14 11:12:00,42.0,33.0,-100.00,NNW,330,4.0,4.0,68,0.00,,,-99.99,,2013-03-14 16:12:00,
2013-03-14 11:22:00,40.0,32.0,-100.00,NW,315,4.0,6.0,70,0.00,,,-99.99,,2013-03-14 16:22:00,
2013-03-14 11:32:00,41.0,32.0,-100.00,NW,325,2.0,6.0,70,0.00,,,-99.99,,2013-03-14 16:32:00,
2013-03-14 11:42:00,43.0,33.0,-100.00,NW,305,1.0,5.0,68,0.00,,,-99.99,,2013-03-14 16:42:00,
2013-03-14 11:52:00,42.0,32.0,-100.00,NNW,330,4.0,5.0,67,0.00,,,-99.99,,2013-03-14 16:52:00,
2013-03-14 12:02:00,42.0,32.0,-100.00,NNW,330,4.0,5.0,67,0.00,,,-99.99,,2013-03-14 17:02:00,
2013-03-14 12:12:00,43.0,33.0,-100.00,NNW,345,3.0,6.0,68,0.00,,,-99.99,,2013-03-14 17:12:00,
2013-03-14 12:32:00,44.0,35.0,-100.00,North,5,4.0,6.0,70,0.00,,,-99.99,,2013-03-14 17:32:00,
2013-03-14 12:42:00,44.0,35.0,-100.00,North,5,4.0,6.0,70,0.00,,,-99.99,,2013-03-14 17:42:00,
2013-03-14 12:52:00,44.0,36.0,-100.00,NNE,15,7.0,10.0,71,0.00,,,-99.99,,2013-03-14 17:52:00,
2013-03-14 13:02:00,44.0,36.0,-100.00,NNE,15,7.0,10.0,71,0.00,,,-99.99,,2013-03-14 18:02:00,
2013-03-14 13:12:00,44.0,36.0,-100.00,North,10,9.0,10.0,72,0.00,,,-99.99,,2013-03-14 18:12:00,
2013-03-14 13:22:00,45.0,37.0,-100.00,NNE,25,6.0,9.0,72,0.00,,,-99.99,,2013-03-14 18:22:00,
2013-03-14 13:32:00,47.0,38.0,-100.00,NNE,25,6.0,7.0,72,0.00,,,-99.99,,2013-03-14 18:32:00,
2013-03-14 13:42:00,47.0,38.0,-100.00,NNE,25,6.0,7.0,72,0.00,,,-99.99,,2013-03-14 18:42:00,
2013-03-14 13:52:00,48.0,39.0,-100.00,NNE,25,6.0,9.0,71,0.00,,,-99.99,,2013-03-14 18:52:00,
2013-03-14 14:02:00,48.0,39.0,-100.00,NNE,25,6.0,9.0,71,0.00,,,-99.99,,2013-03-14 19:02:00,
2013-03-14 14:12:00,49.0,40.0,-100.00,NNE,30,4.0,6.0,71,0.00,,,-99.99,,2013-03-14 19:12:00,
2013-03-14 14:22:00,48.0,40.0,-100.00,NNE,25,7.0,9.0,72,0.00,,,-99.99,,2013-03-14 19:22:00,
2013-03-14 14:32:00,48.0,40.0,-100.00,NNE,25,7.0,10.0,72,0.00,,,-99.99,,2013-03-14 19:32:00,
2013-03-14 14:42:00,48.0,40.0,-100.00,NNE,25,6.0,8.0,72,0.00,,,-99.99,,2013-03-14 19:42:00,
2013-03-14 14:52:00,49.0,41.0,-100.00,North,5,7.0,9.0,72,0.00,,,-99.99,,2013-03-14 19:52:00,
2013-03-14 15:02:00,50.0,41.0,-100.00,North,5,5.0,9.0,72,0.00,,,-99.99,,2013-03-14 20:02:00,
2013-03-14 15:11:00,50.0,41.0,-100.00,NNE,20,4.0,8.0,71,0.00,,,-99.99,,2013-03-14 20:11:00,
2013-03-14 15:22:00,50.0,41.0,-100.00,NNE,25,5.0,7.0,71,0.00,,,-99.99,,2013-03-14 20:22:00,
2013-03-14 15:32:00,52.0,42.0,-100.00,NNE,30,3.0,6.0,69,0.00,,,-99.99,,2013-03-14 20:32:00,
2013-03-14 15:42:00,54.0,43.0,-100.00,ENE,65,2.0,5.0,66,0.00,,,-99.99,,2013-03-14 20:42:00,
2013-03-14 15:52:00,52.0,42.0,-100.00,NNE,20,4.0,5.0,68,0.00,,,-99.99,,2013-03-14 20:52:00,
2013-03-14 16:12:00,53.0,43.0,-100.00,NNE,30,2.0,4.0,67,0.00,,,-99.99,,2013-03-14 21:12:00,
2013-03-14 16:22:00,54.0,44.0,-100.00,NE,40,1.0,4.0,66,0.00,,,-99.99,,2013-03-14 21:22:00,
2013-03-14 16:32:00,56.0,44.0,-100.00,North,5,0.0,2.0,62,0.00,,,-99.99,,2013-03-14 21:32:00,
2013-03-14 16:43:00,54.0,44.0,-100.00,WSW,245,4.0,6.0,66,0.00,,,-99.99,,2013-03-14 21:43:00,
2013-03-14 16:52:00,52.0,42.0,-100.00,WSW,255,6.0,7.0,68,0.00,,,-99.99,,2013-03-14 21:52:00,
2013-03-14 17:03:00,52.0,43.0,-100.00,SW,235,4.0,7.0,70,0.00,,,-99.99,,2013-03-14 22:03:00,
2013-03-14 17:12:00,52.0,43.0,-100.00,WSW,255,5.0,5.0,70,0.00,,,-99.99,,2013-03-14 22:12:00,
2013-03-14 17:23:00,53.0,43.0,-100.00,WSW,245,4.0,5.0,69,0.00,,,-99.99,,2013-03-14 22:23:00,
2013-03-14 17:33:00,53.0,43.0,-100.00,WSW,245,4.0,4.0,68,0.00,,,-99.99,,2013-03-14 22:33:00,
2013-03-14 17:42:00,53.0,43.0,-100.00,SW,220,3.0,4.0,68,0.00,,,-99.99,,2013-03-14 22:42:00,
2013-03-14 17:52:00,52.0,42.0,-100.00,WSW,245,4.0,5.0,69,0.00,,,-99.99,,2013-03-14 22:52:00,
2013-03-14 18:02:00,52.0,43.0,-100.00,WSW,250,5.0,6.0,70,0.00,,,-99.99,,2013-03-14 23:02:00,
2013-03-14 18:12:00,51.0,42.0,-100.00,WSW,240,5.0,6.0,72,0.00,,,-99.99,,2013-03-14 23:12:00,
2013-03-14 18:22:00,51.0,42.0,-100.00,WSW,240,5.0,6.0,72,0.00,,,-99.99,,2013-03-14 23:22:00,
2013-03-14 18:33:00,49.0,42.0,-100.00,SW,235,3.0,6.0,74,0.00,,,-99.99,,2013-03-14 23:33:00,
2013-03-14 18:42:00,49.0,42.0,-100.00,SW,235,3.0,6.0,74,0.00,,,-99.99,,2013-03-14 23:42:00,
2013-03-14 18:53:00,47.0,41.0,-100.00,SW,230,2.0,4.0,77,0.00,,,-99.99,,2013-03-14 23:53:00,
2013-03-14 19:02:00,47.0,41.0,-100.00,SSW,210,1.0,4.0,79,0.00,,,-99.99,,2013-03-15 00:02:00,
2013-03-14 19:12:00,46.0,40.0,-100.00,SW,225,1.0,2.0,79,0.00,,,-99.99,,2013-03-15 00:12:00,
2013-03-14 19:22:00,45.0,40.0,-100.00,WNW,285,0.0,0.0,81,0.00,,,-99.99,,2013-03-15 00:22:00,
2013-03-14 19:32:00,43.0,39.0,-100.00,SW,220,2.0,3.0,85,0.00,,,-99.99,,2013-03-15 00:32:00,
2013-03-14 19:42:00,41.0,38.0,-100.00,SW,235,4.0,4.0,89,0.00,,,-99.99,,2013-03-15 00:42:00,
2013-03-14 19:52:00,41.0,39.0,-100.00,SW,220,2.0,4.0,92,0.00,,,-99.99,,2013-03-15 00:52:00,
2013-03-14 20:02:00,40.0,38.0,-100.00,WSW,240,4.0,6.0,93,0.00,,,-99.99,,2013-03-15 01:02:00,
2013-03-14 20:11:00,39.0,37.0,-100.00,South,180,0.0,6.0,94,0.00,,,-99.99,,2013-03-15 01:11:00,
2013-03-14 20:22:00,39.0,38.0,-100.00,WSW,240,3.0,4.0,96,0.00,,,-99.99,,2013-03-15 01:22:00,
2013-03-14 20:32:00,39.0,38.0,-100.00,WSW,240,4.0,6.0,97,0.00,,,-99.99,,2013-03-15 01:32:00,
2013-03-14 20:52:00,38.0,38.0,-100.00,SW,230,3.0,4.0,99,0.00,,,-99.99,,2013-03-15 01:52:00,
2013-03-14 21:02:00,37.0,37.0,-100.00,SW,230,3.0,3.0,99,0.00,,,-99.99,,2013-03-15 02:02:00,
2013-03-14 21:12:00,37.0,37.0,-100.00,WSW,240,4.0,5.0,99,0.00,,,-99.99,,2013-03-15 02:12:00,
2013-03-14 21:32:00,36.0,36.0,-100.00,SW,235,4.0,4.0,99,0.00,,,-99.99,,2013-03-15 02:32:00,
2013-03-14 21:42:00,36.0,36.0,-100.00,SW,235,4.0,4.0,99,0.00,,,-99.99,,2013-03-15 02:42:00,
2013-03-14 21:52:00,35.0,35.0,-100.00,SW,225,4.0,4.0,99,0.00,,,-99.99,,2013-03-15 02:52:00,
2013-03-14 22:02:00,35.0,35.0,-100.00,SW,235,2.0,4.0,99,0.00,,,-99.99,,2013-03-15 03:02:00,
2013-03-14 22:12:00,35.0,35.0,-100.00,SW,230,3.0,5.0,99,0.00,,,-99.99,,2013-03-15 03:12:00,
2013-03-14 22:22:00,35.0,35.0,-100.00,SW,230,3.0,5.0,99,0.00,,,-99.99,,2013-03-15 03:22:00,
2013-03-14 22:33:00,34.0,34.0,-100.00,SW,230,3.0,4.0,99,0.00,,,-99.99,,2013-03-15 03:33:00,
2013-03-14 22:42:00,34.0,34.0,-100.00,SW,230,3.0,4.0,99,0.00,,,-99.99,,2013-03-15 03:42:00,
2013-03-14 22:52:00,35.0,35.0,-100.00,SW,235,3.0,4.0,99,0.00,,,-99.99,,2013-03-15 03:52:00,
2013-03-14 23:03:00,35.0,35.0,-100.00,SW,235,3.0,4.0,99,0.00,,,-99.99,,2013-03-15 04:03:00,
2013-03-14 23:12:00,34.0,34.0,-100.00,SW,220,2.0,4.0,99,0.00,,,-99.99,,2013-03-15 04:12:00,
2013-03-14 23:22:00,34.0,34.0,-100.00,SW,230,2.0,4.0,99,0.00,,,-99.99,,2013-03-15 04:22:00,
2013-03-14 23:32:00,34.0,34.0,-100.00,SW,225,2.0,3.0,99,0.00,,,-99.99,,2013-03-15 04:32:00,
2013-03-14 23:42:00,34.0,34.0,-100.00,SW,225,2.0,3.0,100,0.00,,,-99.99,,2013-03-15 04:42:00,
2013-03-14 23:52:00,33.0,33.0,-100.00,WSW,240,4.0,5.0,99,0.00,,,-99.99,,2013-03-15 04:52:00,